Wind_Speed
7 5 5 5 6 7 8 8 9 12 15 17 19 20 20 20 20 18 13 12 14 15 16 18 19 21 23 24 26 28 30 32 33 35 35 36 37 38 38 38 37 37 36 37
6 4 3 1 3 5 6 7 7 10 12 13 14 16 17 15 12 11 9 8 9 12 15 17 18 20 22 24 26 28 30 31 33 34 35 35 36 36 37 37 37 37 37 36
3 2 3 2 3 6 6 8 9 12 13 14 16 16 17 12 9 7 5 5 8 11 13 16 17 19 20 22 24 26 28 30 31 33 34 34 35 35 36 36 36 36 36 35
4 2 1 2 3 7 9 10 11 12 14 15 16 16 15 9 5 2 2 3 6 9 12 14 16 17 19 21 22 24 26 28 30 31 32 33 34 35 36 36 36 36 36 35
6 3 2 4 6 7 8 8 9 11 12 14 15 15 13 7 6 4 3 4 6 8 11 14 16 18 20 21 23 24 26 27 29 30 32 33 34 34 35 35 35 35 35 35
7 5 4 5 6 8 8 8 9 9 10 11 12 12 14 9 8 7 7 8 9 11 13 15 17 19 21 23 24 26 27 29 30 32 33 34 34 35 35 35 35 35 36 36
6 6 6 6 6 6 8 8 8 7 7 8 9 10 13 11 9 8 9 10 12 14 16 18 20 22 24 26 28 29 31 32 33 34 35 36 36 36 36 36 37 37 37 38
6 5 4 6 5 4 5 8 8 7 7 8 8 10 12 12 11 11 12 14 17 19 20 22 24 26 28 30 31 33 34 35 36 37 37 37 38 38 38 38 38 39 39 39
6 5 4 5 6 5 5 6 6 6 7 8 7 9 11 12 13 14 17 19 21 22 24 25 28 30 31 33 35 36 37 37 37 38 38 38 38 38 39 39 39 39 40 40
7 5 4 5 6 7 7 7 6 5 7 8 10 11 14 14 15 17 19 21 23 24 26 28 31 33 34 36 37 38 38 39 39 38 38 38 39 39 39 40 40 40 41 41
6 5 4 5 6 7 7 7 7 7 9 12 15 16 16 16 17 19 21 23 25 27 29 30 33 35 36 37 38 38 39 39 39 39 39 40 40 40 40 41 41 41 41 41
6 6 6 5 6 8 9 9 8 9 12 15 17 17 17 18 20 21 23 24 26 27 29 32 34 36 36 37 38 39 39 39 39 39 40 41 41 42 42 42 42 42 41 41
6 6 7 6 6 7 10 12 12 13 14 15 17 18 19 20 21 23 24 25 26 28 30 33 35 36 36 37 38 38 38 39 40 41 41 42 43 43 44 43 43 42 41 41
6 7 7 8 9 10 10 12 14 14 14 14 16 17 19 21 22 23 24 25 27 29 31 34 35 36 36 37 38 39 39 40 41 42 43 43 44 44 44 43 42 41 41 40
6 7 8 9 11 12 12 12 13 14 14 14 15 17 19 21 23 23 25 26 28 30 32 34 35 36 37 38 39 40 40 41 42 44 44 45 45 45 44 43 42 41 40 40
6 6 7 9 10 11 11 12 13 14 14 15 17 19 21 23 23 24 25 26 29 31 33 34 36 37 38 39 40 41 42 42 44 45 46 46 46 45 44 43 42 41 40 40
6 5 6 7 9 9 11 12 13 14 15 17 19 21 23 24 24 24 25 26 29 31 33 35 37 38 39 40 41 42 43 44 45 46 47 47 46 45 44 43 42 40 40 41
6 7 7 8 9 10 11 12 13 15 17 18 19 21 23 24 24 24 25 27 30 32 34 36 37 39 40 41 42 43 44 45 46 47 48 48 47 46 44 43 41 41 41 41
8 9 10 11 11 11 13 14 14 17 19 20 22 24 25 25 25 25 26 29 31 33 35 37 38 39 40 41 42 44 45 46 47 48 48 48 47 46 44 42 41 41 41 40
10 11 13 14 13 12 10 13 16 19 20 22 24 24 25 26 26 27 28 30 33 35 37 38 39 40 41 42 43 44 45 46 47 48 49 49 48 46 44 42 42 41 40 39
15 15 16 17 17 16 16 17 19 21 23 23 24 24 25 26 27 28 30 32 34 36 37 38 40 41 42 42 43 45 45 47 48 48 49 49 48 46 44 42 42 41 40 39
19 20 21 21 21 22 21 22 23 23 24 24 24 24 25 26 27 29 31 33 35 37 38 39 41 42 42 43 44 45 45 46 48 48 49 49 48 46 44 43 41 41 40 38
21 23 23 22 22 22 23 25 26 26 25 24 24 24 24 26 28 31 33 34 36 37 39 40 42 42 43 43 44 45 45 46 48 48 49 48 48 46 44 42 41 41 39 37
20 23 25 24 23 24 25 25 26 27 27 25 25 25 25 27 30 32 35 36 37 39 40 42 42 43 43 43 44 45 45 46 48 49 49 48 47 46 44 42 41 40 38 36
19 23 26 26 25 24 24 25 27 28 28 27 27 27 27 28 31 34 36 38 39 41 42 43 43 43 43 43 44 45 45 46 47 49 49 48 47 45 43 41 40 40 38 36
21 26 27 27 26 26 26 27 28 29 30 30 30 30 30 31 33 35 38 40 42 43 43 43 43 43 43 44 44 45 45 46 47 48 48 47 46 45 43 40 40 39 37 36
Wind_Direction
105 120 147 181 201 219 234 246 267 264 269 271 271 266 270 270 276 270 259 266 276 280 284 286 288 290 291 291 292 293 293 293 293 294 294 294 294 293 293 292 290 288 287 285
86 76 116 171 272 258 264 270 294 301 306 300 292 291 296 293 291 261 245 258 278 287 292 293 293 294 293 294 294 295 295 295 295 295 296 296 295 293 292 291 290 288 286 284
54 66 84 55 344 318 329 334 332 335 334 332 324 320 321 317 302 270 252 263 285 291 295 298 297 297 297 298 298 298 297 297 296 297 297 297 297 296 295 293 292 290 287 285
4 25 5 338 349 351 355 347 349 349 349 350 350 345 339 333 319 244 227 282 294 299 304 307 307 305 305 305 304 303 301 300 300 300 300 300 299 298 297 296 295 293 290 288
7 5 338 353 350 350 346 349 353 355 357 2 6 10 11 28 41 46 38 354 328 322 321 320 318 316 313 312 310 309 307 306 305 305 304 303 302 302 300 299 297 295 293 291
8 2 15 12 351 337 334 338 344 348 353 10 23 27 31 44 50 43 19 354 344 340 334 329 325 321 318 317 316 315 313 312 311 310 309 308 307 306 304 302 300 298 295 293
28 13 13 5 348 326 318 320 323 333 350 5 15 26 29 37 33 17 1 350 346 343 339 333 329 327 325 325 323 320 318 317 315 314 312 310 309 307 306 304 301 299 296 294
10 8 9 5 2 342 314 316 312 319 336 352 4 11 13 18 16 7 356 352 349 347 342 338 334 331 330 327 325 323 321 320 317 315 313 311 310 308 306 304 301 299 296 294
10 1 357 4 16 10 350 340 342 337 339 339 346 354 360 7 8 1 356 353 350 346 342 340 337 334 331 329 326 324 322 320 318 316 314 312 310 309 307 304 302 299 296 293
0 348 327 334 349 359 2 1 356 347 338 335 338 344 358 11 3 357 354 351 347 345 343 340 336 334 331 329 327 324 323 321 320 318 316 314 313 311 308 306 303 301 297 294
344 326 307 309 327 337 341 344 350 346 337 336 339 345 358 3 358 354 352 349 345 343 340 337 334 333 331 329 327 326 325 324 323 322 320 318 316 313 311 308 305 302 299 295
324 308 291 297 318 326 333 339 346 346 337 336 338 344 354 356 353 350 348 345 342 339 337 334 333 332 331 330 329 328 328 327 326 325 324 322 320 317 314 311 308 305 301 297
310 297 292 293 304 315 326 332 338 341 339 337 337 343 349 349 346 344 342 338 336 335 334 334 334 333 332 331 331 330 330 330 330 329 327 325 322 319 316 313 310 307 303 300
301 297 292 292 294 297 307 315 322 330 335 335 336 342 344 342 340 338 335 332 332 333 334 334 333 333 333 333 333 333 333 333 333 331 329 327 325 322 318 315 312 309 305 302
298 297 293 292 293 297 303 306 314 323 330 332 335 340 338 335 333 332 329 328 330 331 332 332 333 334 334 335 336 336 335 335 334 333 331 329 327 324 321 318 315 311 308 305
305 295 288 288 292 298 299 303 308 316 321 327 333 334 330 328 327 327 325 326 327 329 330 331 333 335 335 336 336 336 336 335 335 334 333 331 329 326 323 320 317 314 310 308
313 316 310 303 303 304 294 296 299 306 313 322 327 325 320 320 322 322 321 322 325 327 329 331 333 335 335 335 335 335 336 335 335 335 334 333 330 327 325 322 319 316 314 312
294 308 310 309 305 302 296 298 300 304 309 317 318 316 316 316 318 318 318 321 324 326 329 331 332 333 333 334 334 334 335 336 336 336 335 334 332 329 326 323 321 319 317 315
290 299 309 311 310 307 303 304 304 305 311 316 315 316 315 315 317 319 320 321 323 326 328 329 330 331 331 332 333 334 334 335 336 337 336 335 333 331 328 325 323 322 320 318
299 303 310 312 313 311 315 306 305 308 314 315 315 315 314 315 317 318 318 320 322 324 326 327 328 329 330 331 332 332 333 334 336 337 337 336 334 332 330 327 326 325 324 322
305 307 312 317 319 321 322 317 316 317 318 317 315 313 312 313 314 316 316 318 320 322 324 325 326 328 328 329 330 331 332 334 336 337 337 336 335 333 332 330 328 328 327 325
297 302 308 313 314 315 316 316 316 317 318 316 312 311 311 311 312 314 315 318 319 321 322 324 325 326 327 328 329 330 332 334 336 337 337 336 336 335 333 332 331 330 330 328
285 293 297 300 304 308 310 313 313 314 313 312 309 309 308 309 311 313 315 317 319 320 322 323 325 325 326 327 328 330 331 334 336 337 338 337 336 336 335 334 334 333 332 331
281 287 291 295 300 303 305 307 307 307 308 309 308 307 307 308 309 311 313 316 318 319 321 323 324 324 325 326 328 329 331 333 335 337 338 337 337 336 336 335 336 336 335 334
282 282 285 290 295 297 299 300 301 303 306 307 307 306 306 306 308 310 312 315 317 319 320 322 323 323 324 326 328 329 331 332 334 337 338 338 337 337 337 336 337 338 337 336
282 281 284 288 293 296 298 298 299 301 303 304 304 304 305 306 308 310 312 314 316 317 319 320 321 322 323 325 327 329 330 331 333 336 337 337 337 337 337 337 338 339 339 339
Height
5872 5873 5873 5874 5875 5876 5876 5876 5876 5876 5875 5875 5873 5872 5871 5870 5868 5868 5869 5869 5869 5869 5868 5866 5864 5862 5860 5858 5855 5852 5849 5846 5843 5839 5836 5833 5830 5827 5824 5821 5818 5816 5813 5811
5874 5873 5873 5874 5874 5873 5873 5873 5873 5874 5873 5871 5870 5869 5867 5865 5863 5864 5865 5866 5866 5866 5864 5862 5860 5858 5856 5853 5850 5847 5844 5840 5836 5832 5828 5825 5822 5819 5815 5812 5809 5807 5804 5802
5874 5874 5872 5872 5872 5872 5871 5871 5871 5870 5870 5869 5867 5865 5862 5861 5861 5860 5862 5862 5863 5862 5861 5859 5857 5854 5852 5849 5846 5842 5838 5834 5829 5825 5821 5817 5813 5809 5806 5802 5799 5797 5794 5792
5875 5874 5873 5872 5871 5870 5870 5870 5869 5867 5867 5866 5865 5862 5860 5858 5857 5857 5859 5859 5860 5859 5857 5855 5853 5850 5847 5844 5840 5836 5832 5828 5823 5819 5814 5810 5806 5801 5797 5793 5790 5786 5783 5781
5875 5874 5872 5872 5871 5870 5869 5869 5868 5867 5866 5865 5864 5862 5859 5857 5857 5857 5858 5858 5857 5856 5854 5851 5848 5845 5842 5838 5835 5831 5826 5822 5817 5812 5807 5802 5798 5793 5789 5785 5781 5777 5774 5771
5875 5873 5872 5871 5870 5869 5868 5868 5868 5867 5867 5866 5865 5863 5861 5858 5858 5858 5857 5856 5855 5852 5850 5847 5844 5841 5837 5833 5829 5824 5820 5815 5810 5804 5799 5794 5790 5785 5780 5776 5772 5768 5764 5761
5875 5874 5873 5872 5870 5869 5868 5868 5868 5867 5866 5866 5865 5863 5862 5859 5858 5857 5855 5854 5851 5849 5846 5843 5840 5836 5831 5827 5822 5817 5812 5807 5802 5797 5791 5786 5781 5777 5772 5767 5763 5759 5755 5751
5875 5874 5873 5871 5870 5869 5868 5868 5868 5867 5865 5864 5863 5861 5861 5859 5857 5855 5852 5850 5847 5844 5841 5838 5834 5830 5825 5820 5815 5810 5805 5800 5794 5789 5783 5778 5773 5768 5763 5758 5754 5750 5745 5741
5874 5874 5872 5871 5869 5869 5868 5866 5866 5864 5863 5862 5861 5860 5858 5856 5854 5851 5848 5845 5842 5839 5836 5832 5828 5824 5819 5814 5809 5803 5798 5793 5787 5781 5776 5770 5765 5759 5754 5749 5744 5740 5735 5731
5873 5872 5871 5870 5869 5868 5867 5866 5864 5863 5861 5860 5859 5857 5856 5854 5851 5848 5845 5842 5839 5835 5831 5827 5823 5818 5813 5808 5802 5797 5791 5785 5779 5773 5767 5761 5756 5750 5744 5739 5734 5729 5724 5720
5872 5871 5871 5870 5868 5867 5866 5865 5863 5861 5859 5858 5856 5857 5853 5851 5848 5845 5841 5838 5835 5831 5827 5823 5819 5814 5808 5802 5796 5790 5784 5777 5771 5765 5759 5753 5746 5740 5734 5729 5723 5718 5713 5708
5871 5870 5869 5868 5867 5865 5864 5862 5861 5860 5858 5855 5853 5855 5850 5848 5844 5841 5838 5835 5831 5828 5824 5820 5815 5809 5803 5797 5791 5784 5777 5771 5764 5757 5750 5744 5737 5731 5724 5718 5712 5706 5701 5696
5869 5869 5867 5867 5867 5864 5861 5860 5858 5857 5855 5853 5851 5852 5847 5844 5841 5838 5835 5832 5829 5825 5821 5816 5810 5805 5798 5792 5785 5778 5771 5764 5757 5750 5743 5735 5728 5721 5714 5707 5700 5694 5689 5683
5867 5866 5866 5865 5863 5861 5860 5858 5856 5855 5853 5851 5849 5847 5844 5841 5838 5835 5832 5829 5825 5821 5817 5812 5806 5800 5793 5787 5780 5772 5765 5758 5750 5743 5735 5728 5720 5712 5704 5697 5690 5683 5677 5672
5865 5864 5863 5861 5860 5859 5857 5856 5854 5852 5851 5849 5847 5844 5842 5839 5836 5833 5829 5825 5821 5817 5812 5807 5801 5795 5788 5781 5774 5766 5759 5751 5744 5736 5728 5720 5711 5703 5695 5687 5680 5673 5667 5661
5862 5861 5860 5859 5857 5856 5855 5854 5852 5850 5848 5846 5844 5842 5839 5836 5833 5830 5826 5822 5818 5813 5808 5803 5796 5790 5782 5775 5768 5761 5753 5745 5737 5729 5720 5712 5703 5694 5685 5678 5670 5663 5656 5650
5858 5858 5857 5856 5854 5853 5852 5851 5849 5848 5846 5844 5842 5841 5836 5833 5830 5826 5822 5818 5814 5809 5803 5797 5791 5784 5777 5770 5762 5755 5747 5739 5730 5721 5712 5703 5694 5685 5677 5668 5660 5653 5646 5639
5856 5855 5854 5853 5852 5851 5851 5848 5846 5844 5843 5842 5839 5836 5833 5829 5826 5823 5819 5814 5809 5804 5798 5792 5785 5778 5771 5764 5756 5748 5740 5732 5723 5714 5705 5695 5686 5677 5668 5659 5651 5643 5636 5628
5853 5853 5851 5850 5848 5847 5846 5844 5843 5841 5839 5837 5834 5831 5827 5824 5821 5817 5813 5809 5804 5798 5792 5786 5780 5773 5766 5758 5750 5742 5734 5725 5716 5707 5697 5688 5678 5669 5660 5651 5642 5634 5626 5617
5850 5849 5848 5846 5844 5843 5845 5842 5839 5838 5835 5833 5829 5826 5822 5818 5815 5812 5807 5803 5798 5792 5786 5780 5774 5767 5760 5752 5744 5736 5727 5718 5709 5699 5690 5680 5670 5661 5652 5642 5634 5625 5616 5608
5846 5844 5843 5841 5840 5839 5838 5836 5834 5833 5831 5827 5824 5820 5816 5813 5810 5806 5801 5796 5791 5786 5780 5774 5767 5760 5753 5745 5737 5729 5720 5711 5702 5692 5682 5672 5662 5653 5643 5634 5625 5616 5608 5599
5841 5840 5838 5837 5836 5836 5833 5830 5829 5827 5824 5821 5818 5814 5810 5807 5803 5799 5795 5790 5785 5780 5774 5767 5761 5753 5746 5738 5731 5722 5713 5704 5695 5685 5675 5665 5655 5645 5636 5626 5617 5608 5599 5590
5838 5837 5835 5834 5834 5830 5827 5825 5822 5820 5818 5815 5812 5808 5805 5801 5797 5793 5788 5783 5778 5773 5767 5760 5753 5746 5739 5731 5723 5715 5706 5697 5688 5678 5668 5658 5647 5637 5628 5619 5610 5601 5591 5583
5835 5832 5829 5828 5827 5824 5822 5819 5816 5813 5811 5808 5805 5802 5798 5795 5790 5786 5781 5776 5771 5765 5759 5753 5746 5739 5731 5724 5716 5708 5699 5690 5681 5671 5661 5651 5641 5631 5621 5612 5603 5594 5585 5576
5829 5826 5824 5822 5821 5818 5816 5813 5810 5806 5803 5801 5798 5795 5792 5788 5784 5779 5774 5769 5763 5757 5751 5745 5738 5731 5724 5716 5708 5700 5692 5683 5674 5664 5655 5645 5635 5625 5616 5606 5597 5588 5579 5570
5822 5819 5816 5815 5813 5811 5808 5805 5802 5799 5796 5793 5790 5788 5785 5781 5777 5772 5766 5761 5755 5749 5743 5736 5730 5723 5716 5708 5701 5693 5685 5676 5668 5659 5649 5639 5630 5620 5611 5602 5592 5583 5574 5566